一网星座-0056星 (ONEWEB-0056 )

导读

ONEWEB-0056是英国OneWeb卫星互联网星座的一颗低轨卫星,于2020年2月6日发射入轨。OneWeb是由英国政府参股的全球卫星通信项目,计划部署648颗卫星构建全球高速互联网覆盖,旨在为偏远地区、地面网络受损场景提供稳定连接服务。ONEWEB-0056作为星座组网的组成卫星,支撑OneWeb为政府及企业客户提供安全可靠的卫星通信服务,助力全球网络覆盖建设。

基本信息
目录编号:
45159
目录名称:
ONEWEB-0056
国际标识:
2020-008AE
轨道中心:
EARTH
卫星名称:
一网星座-0056星
卫星全名:
一网星座-0056星 (ONEWEB-0056 )
卫星状态:
在轨 (已飞行2318 天)
发射日期:
2020-02-06 UTC
国别 :
英国 (GB)
星等 :
--
轨道信息
数据来源 国际轨道数据
星历时间: 2026-06-12T12:01:13+0800
15小时前
查看轨道信息
半长轴: 7599.839km
偏心率: 0.0001977
轨道倾角: 87.885°
近地点辐角 89.688°
升交点赤经 37.261°
平近点角 270.448°
近地点: 1220.199km
远地点: 1223.205km
周期: 109.892分钟
每日圈数: 13.103768
详细信息
平衡模式:
三轴稳定
覆盖范围:
全球
运营商:
一网卫星公司
运营商所在国:
英国
制造商(研发单位):
一网卫星公司
制造商所在国:
英国
使用方式:
暂无
卫星简介
OneWeb卫星网络由648颗重约125公斤的微型卫星组成,运行在1200公里的轨道上。 每颗卫星都能够提供至少每秒8千兆位的吞吐量,以使用其高吞吐量的Ku频段有效载荷为家庭和移动平台提供互联网接入。该卫星仍在工作。
2D轨道图
3D轨道图
轨道高度分析图
轨道倾角分析图
轨道综合分析图
查看轨道综合分析图